DAL957 KRNO-KBZN

Flight info

Callsign DAL957
Flight time N/A
Altitude 39000
Route ZEFFR9 BLKJK PYGOW DERMT DERSO DLN BGMAN BGMAN1
Aircraft A319/M-SDE3FGHIRWY/LB1

Departure

Time N/A
Airport Reno Tahoe International Airport (KRNO)

Arrival

Time 2026-05-03 21:18
Airport Bozeman Yellowstone International Airport (KBZN)
Time Latitude Longitude Altitude Speed Heading
2026-05-03 20:15 40.68560 -118.17568 38941 ft 479 kts 32°
2026-05-03 20:15 40.74149 -118.12919 38943 ft 477 kts 31°
2026-05-03 20:16 40.79775 -118.08301 38960 ft 477 kts 33°
2026-05-03 20:16 40.85413 -118.03641 38984 ft 477 kts 31°
2026-05-03 20:17 40.91038 -117.98956 38977 ft 479 kts 33°
2026-05-03 20:17 40.96659 -117.94275 38987 ft 475 kts 32°
2026-05-03 20:18 41.02204 -117.89660 38955 ft 473 kts 34°
2026-05-03 20:18 41.07746 -117.85009 38946 ft 471 kts 32°
2026-05-03 20:19 41.13275 -117.80378 38953 ft 470 kts 32°
2026-05-03 20:19 41.18789 -117.75743 38969 ft 468 kts 32°
2026-05-03 20:20 41.24240 -117.71180 38950 ft 467 kts 34°
2026-05-03 20:20 41.29730 -117.66543 38955 ft 467 kts 31°
2026-05-03 20:21 41.35229 -117.61922 38963 ft 467 kts 32°
2026-05-03 20:21 41.40707 -117.57316 38974 ft 467 kts 33°
2026-05-03 20:22 41.46199 -117.52680 38962 ft 469 kts 33°
2026-05-03 20:22 41.51663 -117.48046 38939 ft 467 kts 34°
2026-05-03 20:23 41.57156 -117.43349 38969 ft 469 kts 30°
2026-05-03 20:23 41.62648 -117.38687 38961 ft 467 kts 33°
2026-05-03 20:24 41.68125 -117.33975 38978 ft 468 kts 31°
2026-05-03 20:24 41.73570 -117.29299 38970 ft 468 kts 32°
2026-05-03 20:25 41.79042 -117.24627 38948 ft 466 kts 33°
2026-05-03 20:25 41.84506 -117.19938 38975 ft 469 kts 32°
2026-05-03 20:26 41.89574 -117.14487 38978 ft 467 kts 47°
2026-05-03 20:26 41.94150 -117.08421 38947 ft 467 kts 46°
2026-05-03 20:27 41.98774 -117.02274 38970 ft 466 kts 46°
2026-05-03 20:27 42.03385 -116.96083 38989 ft 468 kts 43°
2026-05-03 20:28 42.08031 -116.89963 39011 ft 466 kts 42°
2026-05-03 20:28 42.12588 -116.83869 38990 ft 464 kts 45°
2026-05-03 20:29 42.17152 -116.77722 38977 ft 465 kts 44°
2026-05-03 20:29 42.21750 -116.71548 38990 ft 467 kts 44°
2026-05-03 20:30 42.26343 -116.65405 38972 ft 462 kts 43°
2026-05-03 20:30 42.30906 -116.59268 38973 ft 464 kts 45°
2026-05-03 20:31 42.35410 -116.53163 38956 ft 461 kts 45°
2026-05-03 20:31 42.39944 -116.46994 38949 ft 464 kts 46°
2026-05-03 20:32 42.44498 -116.40792 38969 ft 463 kts 45°
2026-05-03 20:32 42.49041 -116.34621 38947 ft 464 kts 43°
2026-05-03 20:33 42.53611 -116.28442 38946 ft 468 kts 44°
2026-05-03 20:33 42.58211 -116.22174 38978 ft 469 kts 45°
2026-05-03 20:34 42.62776 -116.15873 38981 ft 467 kts 45°
2026-05-03 20:34 42.67337 -116.09575 38977 ft 466 kts 43°
2026-05-03 20:35 42.71861 -116.03366 38997 ft 464 kts 43°
2026-05-03 20:35 42.76412 -115.97112 38976 ft 467 kts 45°
2026-05-03 20:36 42.80974 -115.90850 38953 ft 463 kts 45°
2026-05-03 20:36 42.85475 -115.84619 38940 ft 460 kts 45°
2026-05-03 20:37 42.89934 -115.78415 38933 ft 460 kts 45°
2026-05-03 20:37 42.94416 -115.72182 38928 ft 459 kts 43°
2026-05-03 20:38 42.98903 -115.65925 38932 ft 461 kts 45°
2026-05-03 20:38 43.03368 -115.59659 38936 ft 458 kts 43°
2026-05-03 20:39 43.07824 -115.53456 38962 ft 457 kts 44°
2026-05-03 20:39 43.12258 -115.47265 38968 ft 459 kts 46°
2026-05-03 20:40 43.16718 -115.40965 38987 ft 461 kts 45°
2026-05-03 20:40 43.21188 -115.34642 38989 ft 461 kts 46°
2026-05-03 20:41 43.25650 -115.28293 39019 ft 462 kts 44°
2026-05-03 20:41 43.30090 -115.22031 39013 ft 460 kts 44°
2026-05-03 20:42 43.34563 -115.15704 38959 ft 462 kts 45°
2026-05-03 20:42 43.39020 -115.09353 38971 ft 461 kts 47°
2026-05-03 20:43 43.43414 -115.02964 38983 ft 458 kts 45°
2026-05-03 20:43 43.47777 -114.96619 38991 ft 460 kts 45°
2026-05-03 20:44 43.52132 -114.90217 39032 ft 458 kts 45°
2026-05-03 20:44 43.56515 -114.83810 39072 ft 459 kts 45°
2026-05-03 20:45 43.60918 -114.77417 39093 ft 460 kts 44°
2026-05-03 20:45 43.65292 -114.71005 39087 ft 460 kts 46°
2026-05-03 20:46 43.69645 -114.64569 39102 ft 463 kts 46°
2026-05-03 20:46 43.74054 -114.58063 39080 ft 464 kts 44°
2026-05-03 20:47 43.78443 -114.51546 39074 ft 464 kts 46°
2026-05-03 20:47 43.82838 -114.45025 39079 ft 463 kts 46°
2026-05-03 20:48 43.87190 -114.38582 39078 ft 460 kts 44°
2026-05-03 20:48 43.91538 -114.32130 39076 ft 456 kts 46°
2026-05-03 20:49 43.95868 -114.25652 39046 ft 458 kts 44°
2026-05-03 20:49 43.99470 -114.20261 39072 ft 458 kts 43°
2026-05-03 20:50 44.04502 -114.12730 39083 ft 457 kts 43°
2026-05-03 20:50 44.08087 -114.07325 39061 ft 457 kts 44°
2026-05-03 20:51 44.12398 -114.00843 39047 ft 457 kts 43°
2026-05-03 20:51 44.16679 -113.94361 39024 ft 453 kts 45°
2026-05-03 20:52 44.21681 -113.86853 39067 ft 455 kts 46°
2026-05-03 20:52 44.25988 -113.80331 39051 ft 458 kts 45°
2026-05-03 20:53 44.29553 -113.74864 39078 ft 458 kts 45°
2026-05-03 20:53 44.34074 -113.68700 39017 ft 453 kts 39°
2026-05-03 20:54 44.38835 -113.62885 39001 ft 455 kts 39°
2026-05-03 20:54 44.45903 -113.54146 39029 ft 455 kts 40°
2026-05-03 20:55 44.50653 -113.48284 39054 ft 455 kts 37°
2026-05-03 20:55 44.56150 -113.41460 39048 ft 452 kts 37°
2026-05-03 20:56 44.60116 -113.36537 39042 ft 456 kts 38°
2026-05-03 20:56 44.64836 -113.30604 39047 ft 456 kts 40°
2026-05-03 20:57 44.69534 -113.24749 39072 ft 455 kts 41°
2026-05-03 20:57 44.74291 -113.18862 39060 ft 455 kts 38°
2026-05-03 20:58 44.79021 -113.12940 39054 ft 455 kts 39°
2026-05-03 20:58 44.83763 -113.06985 39041 ft 455 kts 40°
2026-05-03 20:59 44.88417 -113.01091 39032 ft 454 kts 40°
2026-05-03 20:59 44.93136 -112.95171 39039 ft 454 kts 40°
2026-05-03 21:00 44.97029 -112.90236 39004 ft 451 kts 40°
2026-05-03 21:00 45.02465 -112.83312 39020 ft 450 kts 40°
2026-05-03 21:01 45.07106 -112.77409 38407 ft 446 kts 40°
2026-05-03 21:01 45.09377 -112.74522 37489 ft 445 kts 42°
2026-05-03 21:01 45.11666 -112.71578 36460 ft 446 kts 41°
2026-05-03 21:02 45.13971 -112.68640 35311 ft 446 kts 41°
2026-05-03 21:02 45.16301 -112.65675 34025 ft 452 kts 40°
2026-05-03 21:02 45.18639 -112.62679 32949 ft 452 kts 39°
2026-05-03 21:02 45.20954 -112.59718 32007 ft 445 kts 40°
2026-05-03 21:03 45.23236 -112.56781 31126 ft 440 kts 39°
2026-05-03 21:03 45.25392 -112.53766 30322 ft 434 kts 48°
2026-05-03 21:03 45.27255 -112.50529 29510 ft 424 kts 51°
2026-05-03 21:03 45.29099 -112.47336 28608 ft 415 kts 51°
2026-05-03 21:04 45.30922 -112.44183 27683 ft 411 kts 49°
2026-05-03 21:04 45.32722 -112.41047 26779 ft 407 kts 50°
2026-05-03 21:04 45.34495 -112.37950 25862 ft 401 kts 49°
2026-05-03 21:04 45.36242 -112.34891 24949 ft 397 kts 49°
2026-05-03 21:05 45.37973 -112.31858 24048 ft 391 kts 50°
2026-05-03 21:05 45.39668 -112.28849 23161 ft 389 kts 50°
2026-05-03 21:05 45.41353 -112.25863 22308 ft 384 kts 49°
2026-05-03 21:05 45.42999 -112.22965 21456 ft 379 kts 49°
2026-05-03 21:06 45.44655 -112.20062 20582 ft 376 kts 50°
2026-05-03 21:06 45.46300 -112.17192 19729 ft 372 kts 50°
2026-05-03 21:06 45.47912 -112.14334 18874 ft 369 kts 50°
2026-05-03 21:06 45.49496 -112.11523 18015 ft 361 kts 50°
2026-05-03 21:07 45.51059 -112.08802 17301 ft 346 kts 51°
2026-05-03 21:07 45.52510 -112.06178 17084 ft 330 kts 55°
2026-05-03 21:07 45.53567 -112.03354 16990 ft 323 kts 68°
2026-05-03 21:07 45.54152 -112.00263 17013 ft 323 kts 80°
2026-05-03 21:08 45.54552 -111.97152 17025 ft 324 kts 77°
2026-05-03 21:08 45.54972 -111.93987 16997 ft 324 kts 78°
2026-05-03 21:08 45.55385 -111.90840 16395 ft 322 kts 77°
2026-05-03 21:08 45.55801 -111.87709 15662 ft 321 kts 77°
2026-05-03 21:09 45.56226 -111.84587 14905 ft 322 kts 78°
2026-05-03 21:09 45.56647 -111.81437 14197 ft 324 kts 77°
2026-05-03 21:09 45.57066 -111.78306 13563 ft 320 kts 79°
2026-05-03 21:09 45.57481 -111.75197 13122 ft 317 kts 79°
2026-05-03 21:10 45.57864 -111.72131 12800 ft 313 kts 79°
2026-05-03 21:10 45.58249 -111.69090 12219 ft 311 kts 79°
2026-05-03 21:10 45.58641 -111.66102 12022 ft 310 kts 77°
2026-05-03 21:10 45.59031 -111.63089 11788 ft 307 kts 79°
2026-05-03 21:11 45.59414 -111.60091 11455 ft 307 kts 78°
2026-05-03 21:11 45.59797 -111.57078 11245 ft 308 kts 76°
2026-05-03 21:11 45.60183 -111.54062 11026 ft 307 kts 79°
2026-05-03 21:11 45.60562 -111.51049 10807 ft 308 kts 79°
2026-05-03 21:12 45.60941 -111.48048 10569 ft 307 kts 78°
2026-05-03 21:12 45.61315 -111.45067 10338 ft 304 kts 78°
2026-05-03 21:12 45.61680 -111.42100 10127 ft 306 kts 78°
2026-05-03 21:12 45.62052 -111.39157 9890 ft 303 kts 78°
2026-05-03 21:13 45.62425 -111.36188 9674 ft 303 kts 79°
2026-05-03 21:13 45.62791 -111.33217 9436 ft 302 kts 78°
2026-05-03 21:13 45.63159 -111.30269 9208 ft 301 kts 79°
2026-05-03 21:13 45.63508 -111.27350 9039 ft 299 kts 79°
2026-05-03 21:14 45.63862 -111.24430 8936 ft 297 kts 78°
2026-05-03 21:14 45.64226 -111.21519 8225 ft 298 kts 79°
2026-05-03 21:14 45.64592 -111.18592 7667 ft 296 kts 79°
2026-05-03 21:14 45.64945 -111.15817 7486 ft 279 kts 78°
2026-05-03 21:15 45.65285 -111.13176 7364 ft 261 kts 81°
2026-05-03 21:15 45.65636 -111.10698 7219 ft 249 kts 70°
2026-05-03 21:15 45.66450 -111.08568 6885 ft 241 kts 46°
2026-05-03 21:15 45.67718 -111.07092 6585 ft 232 kts 25°
2026-05-03 21:16 45.69197 -111.06391 6317 ft 220 kts
2026-05-03 21:16 45.70679 -111.06489 6056 ft 210 kts 345°
2026-05-03 21:16 45.71991 -111.07460 6128 ft 236 kts 319°
2026-05-03 21:16 45.73335 -111.09134 5817 ft 258 kts 318°
2026-05-03 21:17 45.74608 -111.10792 5177 ft 242 kts 312°
2026-05-03 21:17 45.75701 -111.12342 4783 ft 196 kts 316°
2026-05-03 21:17 45.76600 -111.13574 4557 ft 163 kts 315°
2026-05-03 21:17 45.77349 -111.14593 4449 ft 131 kts 315°
2026-05-03 21:18 45.77962 -111.15481 4447 ft 147 kts 315°
2026-05-03 21:18 45.78668 -111.16470 4447 ft 90 kts 316°
2026-05-03 21:18 45.78777 -111.16743 4446 ft 16 kts 200°
2026-05-03 21:18 45.78654 -111.16814 4446 ft 18 kts 176°
2026-05-03 21:19 45.78541 -111.16677 4446 ft 27 kts 137°
2026-05-03 21:19 45.78368 -111.16449 4446 ft 39 kts 137°
2026-05-03 21:19 45.78176 -111.16185 4446 ft 36 kts 136°
2026-05-03 21:19 45.78034 -111.16049 4446 ft 20 kts 186°
2026-05-03 21:20 45.77937 -111.16114 4446 ft 3 kts 226°
2026-05-03 21:20 45.77937 -111.16115 4446 ft 0 kts 226°